Dades meteomassalio
Diari Summary for Juny 11, 2017 Units:  Metric    English   Both
« Previous Day
Next Day »
Diari Semanal Mensual Anual Personalitzat
  Maxima: Minima: Mijana:
Temperatura: 35.4 °C 16.3 °C 26.6 °C
Rosada: 17.9 °C 12.4 °C 14.8 °C
Humitat: 87 % 26 % 53 %
Velocitat del vent: 18.5 km/h 0.0 km/h 4.4 km/h
Racha vent: 18.5 km/h - -
Vent:- - East
Pressio: 1016.8 hPa 1012.8 hPa -
Pluja: 0.0 mm    
Historical Graphs
 
 
Tabular Data for Juny 11, 2017
Time Temperature Dew Point Pressure Wind Wind Speed Wind Gust Humidity Rainfall Rate (Hourly) solar Conditions
00:00 22.6 °C 15.4 °C 1015.8 hPa Calm     64 % 0.0 mm 0.0 W/m2 CLR
00:05 22.5 °C 15.8 °C 1015.8 hPa Calm     66 % 0.0 mm 0.0 W/m2 CLR
00:10 22.4 °C 15.5 °C 1015.8 hPa Calm     65 % 0.0 mm 0.0 W/m2 CLR
00:15 22.3 °C 15.7 °C 1015.8 hPa Calm     66 % 0.0 mm 0.0 W/m2 CLR
00:20 22.3 °C 15.8 °C 1015.8 hPa Calm     67 % 0.0 mm 0.0 W/m2 CLR
00:25 22.2 °C 15.7 °C 1015.8 hPa Calm     67 % 0.0 mm 0.0 W/m2 CLR
00:30 22.1 °C 15.2 °C 1015.8 hPa Calm     65 % 0.0 mm 0.0 W/m2 CLR
00:35 22.1 °C 15.2 °C 1015.8 hPa Calm     65 % 0.0 mm 0.0 W/m2 CLR
00:40 22.0 °C 15.1 °C 1015.8 hPa Calm     65 % 0.0 mm 0.0 W/m2 CLR
00:45 22.0 °C 15.3 °C 1015.8 hPa Calm     66 % 0.0 mm 0.0 W/m2 CLR
00:50 21.9 °C 15.7 °C 1015.8 hPa Calm     68 % 0.0 mm 0.0 W/m2 CLR
00:55 21.8 °C 15.4 °C 1015.8 hPa Calm     67 % 0.0 mm 0.0 W/m2 CLR
01:00 21.8 °C 15.6 °C 1015.8 hPa Calm     68 % 0.0 mm 0.0 W/m2 CLR
01:05 21.8 °C 15.6 °C 1015.8 hPa Calm     68 % 0.0 mm 0.0 W/m2 CLR
01:10 21.7 °C 15.3 °C 1015.8 hPa Calm     67 % 0.0 mm 0.0 W/m2 CLR
01:15 21.6 °C 15.4 °C 1015.8 hPa Calm     68 % 0.0 mm 0.0 W/m2 CLR
01:20 21.5 °C 15.6 °C 1015.8 hPa Calm     69 % 0.0 mm 0.0 W/m2 CLR
01:25 21.3 °C 15.4 °C 1015.8 hPa Calm     69 % 0.0 mm 0.0 W/m2 CLR
01:30 21.2 °C 15.6 °C 1015.8 hPa Calm     70 % 0.0 mm 0.0 W/m2 CLR
01:35 21.1 °C 15.4 °C 1015.8 hPa Calm     70 % 0.0 mm 0.0 W/m2 CLR
01:40 21.1 °C 15.7 °C 1015.5 hPa Calm     71 % 0.0 mm 0.0 W/m2 CLR
01:45 21.2 °C 15.7 °C 1015.8 hPa Calm     71 % 0.0 mm 0.0 W/m2 CLR
01:50 21.1 °C 15.7 °C 1015.8 hPa Calm     71 % 0.0 mm 0.0 W/m2 CLR
01:55 21.1 °C 15.6 °C 1015.8 hPa Calm     71 % 0.0 mm 0.0 W/m2 CLR
02:00 20.9 °C 15.9 °C 1015.8 hPa Calm     73 % 0.0 mm 0.0 W/m2 CLR
02:05 20.8 °C 15.8 °C 1015.8 hPa Calm     73 % 0.0 mm 0.0 W/m2 CLR
02:10 20.6 °C 15.8 °C 1015.8 hPa Calm     74 % 0.0 mm 0.0 W/m2 CLR
02:15 20.4 °C 15.7 °C 1015.8 hPa Calm     74 % 0.0 mm 0.0 W/m2 CLR
02:20 20.3 °C 15.8 °C 1015.8 hPa Calm     75 % 0.0 mm 0.0 W/m2 CLR
02:25 20.2 °C 15.7 °C 1015.8 hPa Calm     75 % 0.0 mm 0.0 W/m2 CLR
02:30 20.1 °C 15.7 °C 1015.8 hPa Calm     76 % 0.0 mm 0.0 W/m2 CLR
02:35 20.0 °C 15.7 °C 1015.8 hPa Calm     76 % 0.0 mm 0.0 W/m2 CLR
02:40 19.8 °C 15.7 °C 1015.8 hPa Calm     77 % 0.0 mm 0.0 W/m2 CLR
02:45 19.7 °C 15.6 °C 1015.8 hPa Calm     77 % 0.0 mm 0.0 W/m2 CLR
02:50 19.6 °C 15.7 °C 1015.8 hPa Calm     78 % 0.0 mm 0.0 W/m2 CLR
02:55 19.5 °C 15.8 °C 1015.8 hPa Calm     79 % 0.0 mm 0.0 W/m2 CLR
03:00 19.3 °C 15.6 °C 1015.8 hPa Calm     79 % 0.0 mm 0.0 W/m2 CLR
03:05 19.2 °C 15.5 °C 1015.8 hPa Calm     79 % 0.0 mm 0.0 W/m2 CLR
03:10 19.1 °C 15.6 °C 1015.8 hPa Calm     80 % 0.0 mm 0.0 W/m2 CLR
03:15 19.0 °C 15.4 °C 1015.8 hPa Calm     80 % 0.0 mm 0.0 W/m2 CLR
03:20 18.9 °C 15.4 °C 1015.8 hPa Calm     80 % 0.0 mm 0.0 W/m2 CLR
03:25 18.9 °C 15.4 °C 1015.8 hPa Calm     80 % 0.0 mm 0.0 W/m2 CLR
03:30 18.8 °C 15.3 °C 1015.8 hPa Calm     80 % 0.0 mm 0.0 W/m2 CLR
03:35 18.6 °C 15.2 °C 1015.8 hPa Calm     81 % 0.0 mm 0.0 W/m2 CLR
03:40 18.4 °C 15.1 °C 1015.8 hPa Calm     81 % 0.0 mm 0.0 W/m2 CLR
03:45 18.3 °C 15.2 °C 1015.8 hPa Calm     82 % 0.0 mm 0.0 W/m2 CLR
03:50 18.3 °C 15.2 °C 1015.8 hPa Calm     82 % 0.0 mm 0.0 W/m2 CLR
03:55 18.2 °C 15.3 °C 1015.5 hPa Calm     83 % 0.0 mm 0.0 W/m2 CLR
04:00 18.2 °C 15.2 °C 1015.5 hPa Calm     83 % 0.0 mm 0.0 W/m2 CLR
04:05 18.1 °C 15.2 °C 1015.8 hPa Calm     83 % 0.0 mm 0.0 W/m2 CLR
04:10 18.1 °C 15.1 °C 1015.8 hPa Calm     83 % 0.0 mm 0.0 W/m2 CLR
04:15 18.0 °C 15.1 °C 1015.5 hPa Calm     83 % 0.0 mm 0.0 W/m2 CLR
04:20 17.9 °C 14.9 °C 1015.8 hPa Calm     83 % 0.0 mm 0.0 W/m2 CLR
04:25 17.8 °C 14.8 °C 1015.8 hPa Calm     83 % 0.0 mm 0.0 W/m2 CLR
04:30 17.7 °C 14.8 °C 1015.5 hPa Calm     83 % 0.0 mm 0.0 W/m2 CLR
04:35 17.7 °C 14.8 °C 1015.8 hPa Calm     83 % 0.0 mm 0.0 W/m2 CLR
04:40 17.7 °C 15.0 °C 1015.8 hPa Calm     84 % 0.0 mm 0.0 W/m2 CLR
04:45 17.7 °C 14.9 °C 1015.8 hPa Calm     84 % 0.0 mm 0.0 W/m2 CLR
04:50 17.6 °C 14.8 °C 1015.8 hPa Calm     84 % 0.0 mm 0.0 W/m2 CLR
04:55 17.5 °C 14.8 °C 1015.8 hPa Calm     84 % 0.0 mm 0.0 W/m2 CLR
05:00 17.4 °C 14.7 °C 1015.8 hPa Calm     84 % 0.0 mm 0.0 W/m2 CLR
05:05 17.3 °C 14.6 °C 1015.8 hPa Calm     84 % 0.0 mm 0.0 W/m2 CLR
05:10 17.3 °C 14.6 °C 1015.8 hPa Calm     84 % 0.0 mm 0.0 W/m2 CLR
05:16 17.4 °C 14.7 °C 1015.8 hPa Calm     84 % 0.0 mm 0.0 W/m2 CLR
05:21 17.4 °C 14.7 °C 1015.8 hPa Calm     84 % 0.0 mm 0.0 W/m2 CLR
05:26 17.4 °C 14.7 °C 1015.8 hPa Calm     84 % 0.0 mm 0.0 W/m2 CLR
05:31 17.3 °C 14.6 °C 1015.8 hPa Calm     84 % 0.0 mm 0.0 W/m2 CLR
05:36 17.3 °C 14.7 °C 1015.8 hPa Calm     85 % 0.0 mm 0.0 W/m2 CLR
05:41 17.2 °C 14.6 °C 1015.8 hPa Calm     85 % 0.0 mm 0.0 W/m2 CLR
05:46 17.1 °C 14.7 °C 1015.8 hPa Calm     86 % 0.0 mm 0.0 W/m2 CLR
05:51 17.1 °C 14.7 °C 1015.8 hPa Calm     86 % 0.0 mm 0.0 W/m2 CLR
05:56 17.0 °C 14.7 °C 1015.8 hPa Calm     86 % 0.0 mm 0.0 W/m2 CLR
06:01 16.9 °C 14.6 °C 1015.8 hPa Calm     86 % 0.0 mm 0.0 W/m2 CLR
06:06 16.9 °C 14.6 °C 1016.1 hPa Calm     86 % 0.0 mm 0.0 W/m2 CLR
06:11 16.8 °C 14.4 °C 1016.1 hPa Calm     86 % 0.0 mm 0.0 W/m2 CLR
06:16 16.8 °C 14.4 °C 1016.1 hPa Calm     86 % 0.0 mm 0.0 W/m2 CLR
06:21 16.7 °C 14.3 °C 1016.1 hPa Calm     86 % 0.0 mm 0.0 W/m2 OVC
06:26 16.6 °C 14.2 °C 1016.1 hPa Calm     86 % 0.0 mm 0.0 W/m2 OVC
06:31 16.6 °C 14.2 °C 1016.1 hPa Calm     86 % 0.0 mm 5.0 W/m2 OVC
06:36 16.6 °C 14.2 °C 1016.1 hPa Calm     86 % 0.0 mm 9.0 W/m2 BKN
06:41 16.5 °C 14.2 °C 1016.1 hPa Calm     86 % 0.0 mm 11.0 W/m2 BKN
06:46 16.5 °C 14.2 °C 1016.1 hPa Calm     86 % 0.0 mm 14.0 W/m2 BKN
06:51 16.4 °C 14.1 °C 1016.1 hPa Calm     86 % 0.0 mm 16.0 W/m2 BKN
06:56 16.3 °C 13.9 °C 1016.1 hPa Calm     86 % 0.0 mm 19.0 W/m2 BKN
07:01 16.3 °C 14.2 °C 1016.1 hPa Calm     87 % 0.0 mm 23.0 W/m2 BKN
07:06 16.4 °C 14.3 °C 1016.1 hPa Calm     87 % 0.0 mm 30.0 W/m2 BKN
07:11 16.6 °C 14.4 °C 1016.1 hPa Calm     87 % 0.0 mm 39.0 W/m2 BKN
07:16 16.7 °C 14.6 °C 1016.1 hPa Calm     87 % 0.0 mm 49.0 W/m2 SCT
07:21 16.9 °C 14.6 °C 1016.1 hPa Calm     86 % 0.0 mm 60.0 W/m2 SCT
07:26 17.0 °C 14.7 °C 1016.5 hPa Calm     86 % 0.0 mm 70.0 W/m2 FEW
07:31 17.2 °C 14.6 °C 1016.5 hPa Calm     85 % 0.0 mm 83.0 W/m2 FEW
07:36 17.3 °C 14.8 °C 1016.5 hPa Calm     85 % 0.0 mm 95.0 W/m2 FEW
07:41 17.6 °C 14.8 °C 1016.5 hPa Calm     84 % 0.0 mm 113.0 W/m2 CLR
07:46 17.9 °C 15.2 °C 1016.5 hPa Calm     84 % 0.0 mm 127.0 W/m2 CLR
07:51 18.2 °C 15.1 °C 1016.5 hPa Calm     82 % 0.0 mm 142.0 W/m2 CLR
07:56 18.4 °C 15.1 °C 1016.5 hPa Calm     81 % 0.0 mm 160.0 W/m2 CLR
08:01 18.7 °C 15.4 °C 1016.5 hPa Calm     81 % 0.0 mm 176.0 W/m2 CLR
08:06 18.9 °C 15.4 °C 1016.5 hPa Calm     80 % 0.0 mm 192.0 W/m2 CLR
08:11 19.3 °C 15.4 °C 1016.5 hPa Calm     78 % 0.0 mm 206.0 W/m2 CLR
08:16 19.7 °C 15.6 °C 1016.5 hPa Calm     77 % 0.0 mm 221.0 W/m2 CLR
08:21 20.1 °C 15.7 °C 1016.5 hPa Calm     76 % 0.0 mm 239.0 W/m2 CLR
08:26 20.5 °C 15.7 °C 1016.5 hPa Calm     74 % 0.0 mm 253.0 W/m2 CLR
08:31 20.9 °C 16.1 °C 1016.8 hPa Calm     74 % 0.0 mm 267.0 W/m2 CLR
08:36 21.3 °C 16.1 °C 1016.8 hPa Calm     72 % 0.0 mm 281.0 W/m2 CLR
08:41 21.7 °C 16.2 °C 1016.8 hPa Calm     71 % 0.0 mm 299.0 W/m2 CLR
08:46 22.0 °C 16.3 °C 1016.8 hPa Calm     70 % 0.0 mm 315.0 W/m2 CLR
08:51 22.3 °C 16.4 °C 1016.8 hPa Calm     69 % 0.0 mm 329.0 W/m2 CLR
08:56 22.7 °C 16.2 °C 1016.8 hPa Calm     67 % 0.0 mm 343.0 W/m2 CLR
09:01 23.0 °C 16.3 °C 1016.8 hPa Calm     66 % 0.0 mm 359.0 W/m2 CLR
09:06 23.3 °C 16.6 °C 1016.5 hPa Calm     66 % 0.0 mm 374.0 W/m2 CLR
09:11 23.9 °C 16.9 °C 1016.5 hPa Calm     65 % 0.0 mm 390.0 W/m2 CLR
09:16 24.3 °C 16.8 °C 1016.5 hPa Calm     63 % 0.0 mm 404.0 W/m2 CLR
09:21 24.4 °C 16.9 °C 1016.5 hPa Calm     63 % 0.0 mm 420.0 W/m2 CLR
09:26 24.4 °C 16.9 °C 1016.5 hPa Calm     63 % 0.0 mm 438.0 W/m2 CLR
09:31 24.4 °C 16.9 °C 1016.5 hPa Calm     63 % 0.0 mm 452.0 W/m2 CLR
09:36 24.7 °C 17.2 °C 1016.5 hPa Calm     63 % 0.0 mm 466.0 W/m2 CLR
09:41 25.1 °C 17.0 °C 1016.5 hPa Calm     61 % 0.0 mm 480.0 W/m2 CLR
09:46 25.4 °C 17.3 °C 1016.5 hPa Calm     61 % 0.0 mm 497.0 W/m2 CLR
09:51 25.8 °C 17.2 °C 1016.5 hPa Calm     59 % 0.0 mm 512.0 W/m2 CLR
09:56 26.1 °C 17.4 °C 1016.5 hPa Calm     59 % 0.0 mm 526.0 W/m2 CLR
10:01 26.3 °C 17.1 °C 1016.5 hPa Calm     57 % 0.0 mm 540.0 W/m2 CLR
10:06 26.2 °C 17.6 °C 1016.5 hPa Calm     59 % 0.0 mm 554.0 W/m2 CLR
10:11 26.4 °C 17.8 °C 1016.8 hPa Calm   0.2 km/h 59 % 0.0 mm 570.0 W/m2 CLR
10:16 26.6 °C 17.7 °C 1016.8 hPa ENE 1.9 km/h 1.9 km/h 58 % 0.0 mm 584.0 W/m2 CLR
10:21 26.7 °C 17.8 °C 1016.5 hPa East 1.9 km/h 1.9 km/h 58 % 0.0 mm 596.0 W/m2 CLR
10:26 26.9 °C 17.7 °C 1016.5 hPa ENE 5.6 km/h 5.6 km/h 57 % 0.0 mm 610.0 W/m2 CLR
10:31 26.9 °C 17.4 °C 1016.8 hPa ENE 6.4 km/h 6.4 km/h 56 % 0.0 mm 624.0 W/m2 CLR
10:36 26.7 °C 17.5 °C 1016.8 hPa ENE 7.4 km/h 7.4 km/h 57 % 0.0 mm 636.0 W/m2 CLR
10:41 27.0 °C 17.5 °C 1016.5 hPa ENE 8.0 km/h 8.0 km/h 56 % 0.0 mm 650.0 W/m2 CLR
10:46 27.2 °C 17.9 °C 1016.5 hPa ENE 8.0 km/h 8.0 km/h 57 % 0.0 mm 663.0 W/m2 CLR
10:51 27.3 °C 17.2 °C 1016.5 hPa ENE 7.4 km/h 7.4 km/h 54 % 0.0 mm 677.0 W/m2 CLR
10:56 27.4 °C 17.3 °C 1016.5 hPa ENE 7.4 km/h 7.4 km/h 54 % 0.0 mm 687.0 W/m2 CLR
11:01 27.6 °C 17.1 °C 1016.5 hPa NE 13.0 km/h 13.0 km/h 53 % 0.0 mm 701.0 W/m2 CLR
11:06 27.9 °C 16.5 °C 1016.5 hPa NE 9.7 km/h 9.7 km/h 50 % 0.0 mm 712.0 W/m2 CLR
11:11 28.0 °C 16.6 °C 1016.5 hPa ENE 3.7 km/h   50 % 0.0 mm 722.0 W/m2 CLR
11:16 28.1 °C 15.7 °C 1016.5 hPa ENE 11.1 km/h 11.1 km/h 47 % 0.0 mm 737.0 W/m2 CLR
11:22 28.3 °C 16.3 °C 1016.5 hPa NE 5.6 km/h 5.6 km/h 48 % 0.0 mm 745.0 W/m2 CLR
11:27 28.6 °C 16.8 °C 1016.5 hPa NNE 8.0 km/h 8.0 km/h 49 % 0.0 mm 756.0 W/m2 CLR
11:37 28.9 °C 16.5 °C 1016.5 hPa Calm     47 % 0.0 mm 779.0 W/m2 CLR
11:42 29.3 °C 16.8 °C 1016.5 hPa NE 5.6 km/h   47 % 0.0 mm 788.0 W/m2 CLR
11:47 29.5 °C 16.3 °C 1016.5 hPa NE 7.4 km/h 7.4 km/h 45 % 0.0 mm 798.0 W/m2 CLR
11:52 29.7 °C 15.8 °C 1016.1 hPa Calm     43 % 0.0 mm 807.0 W/m2 CLR
11:57 30.0 °C 16.1 °C 1016.1 hPa ENE 3.7 km/h   43 % 0.0 mm 816.0 W/m2 CLR
12:02 30.1 °C 15.7 °C 1016.1 hPa NE 5.6 km/h   42 % 0.0 mm 826.0 W/m2 CLR
12:07 30.0 °C 16.1 °C 1016.1 hPa NE 5.6 km/h 5.6 km/h 43 % 0.0 mm 833.0 W/m2 CLR
12:12 30.0 °C 16.1 °C 1016.1 hPa NE 9.3 km/h 9.3 km/h 43 % 0.0 mm 840.0 W/m2 CLR
12:17 30.1 °C 15.4 °C 1016.1 hPa Calm     41 % 0.0 mm 849.0 W/m2 CLR
12:22 30.3 °C 16.7 °C 1016.1 hPa ENE 9.3 km/h 9.3 km/h 44 % 0.0 mm 856.0 W/m2 CLR
12:27 30.6 °C 15.8 °C 1016.1 hPa NE 5.6 km/h 5.6 km/h 41 % 0.0 mm 863.0 W/m2 CLR
12:32 30.8 °C 16.1 °C 1016.1 hPa Calm     41 % 0.0 mm 865.0 W/m2 CLR
12:37 30.9 °C 16.2 °C 1015.8 hPa NE 9.3 km/h 9.3 km/h 41 % 0.0 mm 874.0 W/m2 CLR
12:42 31.1 °C 15.9 °C 1015.8 hPa NE 7.4 km/h 7.4 km/h 40 % 0.0 mm 881.0 W/m2 CLR
12:47 31.2 °C 16.3 °C 1015.8 hPa Calm     41 % 0.0 mm 888.0 W/m2 CLR
12:52 31.6 °C 16.8 °C 1015.8 hPa NE 13.0 km/h 13.0 km/h 41 % 0.0 mm 891.0 W/m2 CLR
12:57 31.7 °C 16.8 °C 1015.8 hPa ENE 8.0 km/h 8.0 km/h 41 % 0.0 mm 896.0 W/m2 CLR
13:02 31.8 °C 16.6 °C 1015.8 hPa NNE 5.6 km/h   40 % 0.0 mm 900.0 W/m2 CLR
13:07 31.9 °C 16.6 °C 1015.8 hPa ENE 13.0 km/h 13.0 km/h 40 % 0.0 mm 905.0 W/m2 CLR
13:12 32.2 °C 16.4 °C 1015.5 hPa ENE 7.4 km/h 7.4 km/h 39 % 0.0 mm 911.0 W/m2 CLR
13:17 32.3 °C 16.2 °C 1015.5 hPa North 7.4 km/h 7.4 km/h 38 % 0.0 mm 912.0 W/m2 CLR
13:22 32.2 °C 15.6 °C 1015.5 hPa NNE 18.5 km/h 18.5 km/h 37 % 0.0 mm 914.0 W/m2 CLR
13:27 32.2 °C 16.1 °C 1015.5 hPa NNE 13.0 km/h 13.0 km/h 38 % 0.0 mm 916.0 W/m2 CLR
13:32 32.3 °C 16.2 °C 1015.5 hPa NE 11.1 km/h 11.1 km/h 38 % 0.0 mm 919.0 W/m2 CLR
13:37 32.6 °C 16.0 °C 1015.5 hPa ENE 9.3 km/h 9.3 km/h 37 % 0.0 mm 923.0 W/m2 CLR
13:42 32.6 °C 15.6 °C 1015.1 hPa NE 9.3 km/h 9.3 km/h 36 % 0.0 mm 925.0 W/m2 CLR
13:47 32.8 °C 15.8 °C 1015.1 hPa NE 11.1 km/h 11.1 km/h 36 % 0.0 mm 925.0 W/m2 CLR
13:52 33.1 °C 16.1 °C 1015.1 hPa ENE 7.4 km/h 7.4 km/h 36 % 0.0 mm 925.0 W/m2 CLR
13:57 33.4 °C 15.4 °C 1015.1 hPa NNE 16.7 km/h 16.7 km/h 34 % 0.0 mm 928.0 W/m2 CLR
14:02 33.4 °C 15.4 °C 1015.1 hPa NE 14.8 km/h 14.8 km/h 34 % 0.0 mm 928.0 W/m2 CLR
14:07 33.4 °C 14.5 °C 1015.1 hPa ENE 3.7 km/h 3.7 km/h 32 % 0.0 mm 928.0 W/m2 CLR
14:12 33.7 °C 13.7 °C 1015.1 hPa NNE 11.1 km/h 11.1 km/h 30 % 0.0 mm 928.0 W/m2 CLR
14:17 33.8 °C 13.3 °C 1015.1 hPa NNE 14.8 km/h 14.8 km/h 29 % 0.0 mm 928.0 W/m2 CLR
14:22 33.9 °C 12.9 °C 1015.1 hPa East 14.8 km/h 14.8 km/h 28 % 0.0 mm 926.0 W/m2 CLR
14:27 34.0 °C 13.4 °C 1014.8 hPa ENE 8.0 km/h 8.0 km/h 29 % 0.0 mm 926.0 W/m2 CLR
14:32 34.2 °C 12.5 °C 1014.8 hPa NNE 1.9 km/h   27 % 0.0 mm 925.0 W/m2 CLR
14:37 34.2 °C 13.1 °C 1014.8 hPa NE 11.1 km/h 11.1 km/h 28 % 0.0 mm 921.0 W/m2 CLR
14:42 34.3 °C 13.7 °C 1014.8 hPa ENE 9.3 km/h 9.3 km/h 29 % 0.0 mm 918.0 W/m2 CLR
14:47 34.5 °C 13.3 °C 1014.8 hPa NE 14.8 km/h 14.8 km/h 28 % 0.0 mm 914.0 W/m2 CLR
14:52 34.7 °C 13.0 °C 1014.4 hPa NE 9.7 km/h 9.7 km/h 27 % 0.0 mm 909.0 W/m2 CLR
14:57 34.8 °C 13.1 °C 1014.4 hPa NNE 11.1 km/h 11.1 km/h 27 % 0.0 mm 909.0 W/m2 CLR
15:02 34.8 °C 13.0 °C 1014.4 hPa NE 7.4 km/h 7.4 km/h 27 % 0.0 mm 904.0 W/m2 CLR
15:07 34.8 °C 13.1 °C 1014.4 hPa NE 7.4 km/h 7.4 km/h 27 % 0.0 mm 898.0 W/m2 CLR
15:12 34.9 °C 13.7 °C 1014.4 hPa NNE 9.7 km/h 9.7 km/h 28 % 0.0 mm 891.0 W/m2 CLR
15:17 35.1 °C 13.3 °C 1014.4 hPa NE 18.5 km/h 18.5 km/h 27 % 0.0 mm 888.0 W/m2 CLR
15:22 35.2 °C 14.4 °C 1014.4 hPa East 7.4 km/h 7.4 km/h 29 % 0.0 mm 882.0 W/m2 CLR
15:27 34.8 °C 13.6 °C 1014.4 hPa ESE 13.0 km/h 13.0 km/h 28 % 0.0 mm 875.0 W/m2 CLR
15:32 34.6 °C 13.9 °C 1014.1 hPa NE 13.0 km/h 13.0 km/h 29 % 0.0 mm 870.0 W/m2 CLR
15:37 34.7 °C 13.5 °C 1014.1 hPa North 16.7 km/h 16.7 km/h 28 % 0.0 mm 860.0 W/m2 CLR
15:42 35.0 °C 13.8 °C 1014.1 hPa NE 9.3 km/h 9.3 km/h 28 % 0.0 mm 860.0 W/m2 CLR
15:47 35.3 °C 14.0 °C 1014.1 hPa SE 5.6 km/h 5.6 km/h 28 % 0.0 mm 849.0 W/m2 CLR
15:52 35.1 °C 13.9 °C 1014.1 hPa ESE 13.0 km/h 13.0 km/h 28 % 0.0 mm 840.0 W/m2 CLR
15:57 34.9 °C 13.7 °C 1014.1 hPa East 8.0 km/h 8.0 km/h 28 % 0.0 mm 830.0 W/m2 CLR
16:02 34.9 °C 13.2 °C 1013.8 hPa NNE 18.5 km/h 18.5 km/h 27 % 0.0 mm 826.0 W/m2 CLR
16:07 35.2 °C 13.4 °C 1013.8 hPa ENE 11.1 km/h 11.1 km/h 27 % 0.0 mm 812.0 W/m2 CLR
16:12 35.4 °C 14.1 °C 1013.8 hPa East 9.7 km/h 9.7 km/h 28 % 0.0 mm 803.0 W/m2 CLR
16:17 35.4 °C 13.6 °C 1013.8 hPa SE 9.7 km/h 9.7 km/h 27 % 0.0 mm 795.0 W/m2 CLR
16:22 35.2 °C 14.5 °C 1013.8 hPa ENE 3.7 km/h 3.7 km/h 29 % 0.0 mm 788.0 W/m2 CLR
16:27 35.4 °C 13.6 °C 1013.8 hPa East 7.4 km/h 7.4 km/h 27 % 0.0 mm 775.0 W/m2 CLR
16:32 35.2 °C 13.4 °C 1013.8 hPa NE 13.0 km/h 13.0 km/h 27 % 0.0 mm 765.0 W/m2 CLR
16:37 35.2 °C 12.8 °C 1013.8 hPa ENE 12.9 km/h 12.9 km/h 26 % 0.0 mm 756.0 W/m2 CLR
16:42 35.2 °C 13.3 °C 1013.4 hPa NE 3.7 km/h 3.7 km/h 27 % 0.0 mm 745.0 W/m2 CLR
16:47 35.4 °C 14.1 °C 1013.4 hPa ENE 18.5 km/h 18.5 km/h 28 % 0.0 mm 733.0 W/m2 CLR
16:52 35.1 °C 12.7 °C 1013.4 hPa ENE 13.0 km/h 13.0 km/h 26 % 0.0 mm 719.0 W/m2 CLR
16:57 35.1 °C 14.3 °C 1013.4 hPa ENE 5.6 km/h   29 % 0.0 mm 708.0 W/m2 CLR
17:02 34.9 °C 14.8 °C 1013.4 hPa ESE 9.7 km/h 9.7 km/h 30 % 0.0 mm 698.0 W/m2 CLR
17:07 35.1 °C 14.4 °C 1013.4 hPa East 5.6 km/h 5.6 km/h 29 % 0.0 mm 682.0 W/m2 CLR
17:12 35.2 °C 13.9 °C 1013.4 hPa ENE 13.0 km/h 13.0 km/h 28 % 0.0 mm 671.0 W/m2 CLR
17:17 34.9 °C 14.3 °C 1013.1 hPa ENE 18.5 km/h 18.5 km/h 29 % 0.0 mm 661.0 W/m2 CLR
17:22 34.7 °C 14.1 °C 1013.1 hPa East 6.4 km/h 6.4 km/h 29 % 0.0 mm 647.0 W/m2 CLR
17:27 34.8 °C 13.6 °C 1013.1 hPa SE 9.7 km/h 9.7 km/h 28 % 0.0 mm 631.0 W/m2 CLR
17:32 34.8 °C 13.6 °C 1013.1 hPa ESE 13.0 km/h 13.0 km/h 28 % 0.0 mm 621.0 W/m2 CLR
17:37 34.7 °C 13.6 °C 1013.1 hPa ESE 11.3 km/h 11.3 km/h 28 % 0.0 mm 608.0 W/m2 CLR
17:42 34.6 °C 13.4 °C 1013.1 hPa ESE 7.4 km/h 7.4 km/h 28 % 0.0 mm 592.0 W/m2 CLR
17:47 34.6 °C 13.4 °C 1013.1 hPa East 13.0 km/h 13.0 km/h 28 % 0.0 mm 578.0 W/m2 CLR
17:49 34.5 °C 13.9 °C 1013.1 hPa SE 11.1 km/h 11.1 km/h 29 % 0.0 mm 575.0 W/m2 CLR
17:54 34.5 °C 13.3 °C 1013.1 hPa ESE 11.1 km/h 11.1 km/h 28 % 0.0 mm 561.0 W/m2 CLR
17:59 34.5 °C 13.3 °C 1013.1 hPa East 9.3 km/h 9.3 km/h 28 % 0.0 mm 547.0 W/m2 CLR
18:04 34.3 °C 13.2 °C 1013.1 hPa ESE 13.0 km/h 13.0 km/h 28 % 0.0 mm 534.0 W/m2 CLR
18:09 34.3 °C 13.2 °C 1013.1 hPa ESE 11.1 km/h 11.1 km/h 28 % 0.0 mm 520.0 W/m2 CLR
18:14 34.4 °C 13.2 °C 1013.1 hPa ESE 11.1 km/h 11.1 km/h 28 % 0.0 mm 504.0 W/m2 CLR
18:19 34.3 °C 13.2 °C 1012.8 hPa East 13.0 km/h 13.0 km/h 28 % 0.0 mm 490.0 W/m2 CLR
18:24 34.2 °C 13.7 °C 1012.8 hPa ESE 7.4 km/h 7.4 km/h 29 % 0.0 mm 475.0 W/m2 CLR
18:29 34.1 °C 14.1 °C 1012.8 hPa ESE 13.0 km/h 13.0 km/h 30 % 0.0 mm 461.0 W/m2 CLR
18:34 34.0 °C 13.4 °C 1012.8 hPa East 11.1 km/h 11.1 km/h 29 % 0.0 mm 446.0 W/m2 CLR
18:39 33.9 °C 13.3 °C 1012.8 hPa ENE 9.3 km/h 9.3 km/h 29 % 0.0 mm 429.0 W/m2 CLR
18:44 33.8 °C 13.8 °C 1012.8 hPa SE 11.1 km/h 11.1 km/h 30 % 0.0 mm 413.0 W/m2 CLR
18:49 33.6 °C 14.2 °C 1012.8 hPa ESE 16.7 km/h 16.7 km/h 31 % 0.0 mm 399.0 W/m2 CLR
18:54 33.4 °C 14.0 °C 1012.8 hPa ESE 13.0 km/h 13.0 km/h 31 % 0.0 mm 385.0 W/m2 CLR
18:59 33.4 °C 13.4 °C 1012.8 hPa East 11.3 km/h 11.3 km/h 30 % 0.0 mm 367.0 W/m2 CLR
19:04 33.3 °C 13.8 °C 1012.8 hPa SE 9.3 km/h 9.3 km/h 31 % 0.0 mm 352.0 W/m2 CLR
19:09 33.3 °C 13.8 °C 1012.8 hPa East 9.3 km/h 9.3 km/h 31 % 0.0 mm 338.0 W/m2 CLR
19:14 33.3 °C 14.3 °C 1012.8 hPa ESE 7.4 km/h 7.4 km/h 32 % 0.0 mm 322.0 W/m2 CLR
19:19 33.2 °C 14.3 °C 1012.8 hPa SE 5.6 km/h 5.6 km/h 32 % 0.0 mm 304.0 W/m2 CLR
19:24 33.2 °C 14.3 °C 1012.8 hPa SSE 7.4 km/h 7.4 km/h 32 % 0.0 mm 288.0 W/m2 CLR
19:29 32.9 °C 14.0 °C 1012.8 hPa SE 14.8 km/h 14.8 km/h 32 % 0.0 mm 274.0 W/m2 CLR
19:34 32.8 °C 14.4 °C 1012.8 hPa ESE 13.0 km/h 13.0 km/h 33 % 0.0 mm 260.0 W/m2 CLR
19:39 32.7 °C 14.8 °C 1012.8 hPa ESE 13.0 km/h 13.0 km/h 34 % 0.0 mm 246.0 W/m2 CLR
19:44 32.6 °C 14.7 °C 1013.1 hPa ESE 11.1 km/h 11.1 km/h 34 % 0.0 mm 227.0 W/m2 CLR
19:49 32.5 °C 14.6 °C 1012.8 hPa ESE 11.1 km/h 11.1 km/h 34 % 0.0 mm 213.0 W/m2 CLR
19:54 32.4 °C 14.6 °C 1013.1 hPa ESE 9.3 km/h 9.3 km/h 34 % 0.0 mm 197.0 W/m2 CLR
19:59 32.3 °C 14.4 °C 1013.1 hPa SE 9.3 km/h 9.3 km/h 34 % 0.0 mm 181.0 W/m2 CLR
20:05 32.3 °C 14.4 °C 1013.1 hPa ESE 9.3 km/h 9.3 km/h 34 % 0.0 mm 162.0 W/m2 CLR
20:10 32.2 °C 14.4 °C 1013.1 hPa ESE 8.0 km/h 8.0 km/h 34 % 0.0 mm 144.0 W/m2 CLR
20:15 32.1 °C 14.7 °C 1013.1 hPa ESE 9.3 km/h 9.3 km/h 35 % 0.0 mm 128.0 W/m2 CLR
20:20 31.9 °C 14.1 °C 1013.1 hPa ESE 7.4 km/h 7.4 km/h 34 % 0.0 mm 114.0 W/m2 CLR
20:25 31.8 °C 14.5 °C 1013.1 hPa ESE 7.4 km/h 7.4 km/h 35 % 0.0 mm 97.0 W/m2 CLR
20:30 31.7 °C 14.4 °C 1013.1 hPa Calm     35 % 0.0 mm 84.0 W/m2 CLR
20:35 31.5 °C 14.2 °C 1013.1 hPa ESE 7.4 km/h 7.4 km/h 35 % 0.0 mm 72.0 W/m2 FEW
20:40 31.4 °C 14.5 °C 1013.1 hPa Calm     36 % 0.0 mm 60.0 W/m2 SCT
20:45 31.3 °C 14.4 °C 1013.1 hPa SE 1.6 km/h 2.1 km/h 36 % 0.0 mm 26.0 W/m2 BKN
20:50 31.1 °C 14.3 °C 1013.1 hPa Calm     36 % 0.0 mm 39.0 W/m2 BKN
20:55 31.0 °C 14.2 °C 1013.1 hPa SSE 13.0 km/h 13.0 km/h 36 % 0.0 mm 30.0 W/m2 BKN
21:00 30.9 °C 14.1 °C 1013.1 hPa SSE 11.3 km/h 11.3 km/h 36 % 0.0 mm 23.0 W/m2 BKN
21:05 30.8 °C 14.1 °C 1013.1 hPa SE 11.3 km/h 11.3 km/h 36 % 0.0 mm 18.0 W/m2 BKN
21:10 30.7 °C 13.9 °C 1013.4 hPa SE 11.1 km/h 11.1 km/h 36 % 0.0 mm 14.0 W/m2 BKN
21:15 30.5 °C 14.2 °C 1013.4 hPa SE 9.3 km/h 9.3 km/h 37 % 0.0 mm 12.0 W/m2 BKN
21:20 30.3 °C 14.0 °C 1013.4 hPa SE 7.4 km/h 7.4 km/h 37 % 0.0 mm 9.0 W/m2 BKN
21:25 30.2 °C 13.9 °C 1013.4 hPa SSE 11.3 km/h 11.3 km/h 37 % 0.0 mm 7.0 W/m2 BKN
21:30 30.1 °C 13.8 °C 1013.4 hPa SE 11.3 km/h 11.3 km/h 37 % 0.0 mm 0.0 W/m2 OVC
21:35 29.9 °C 13.2 °C 1013.4 hPa SE 11.1 km/h 11.1 km/h 36 % 0.0 mm 0.0 W/m2 OVC
21:40 29.8 °C 13.6 °C 1013.4 hPa SE 11.1 km/h 11.1 km/h 37 % 0.0 mm 0.0 W/m2 OVC
21:45 29.7 °C 13.5 °C 1013.4 hPa SE 9.3 km/h 9.3 km/h 37 % 0.0 mm 0.0 W/m2 CLR
21:50 29.6 °C 13.7 °C 1013.4 hPa SE 5.6 km/h 5.6 km/h 38 % 0.0 mm 0.0 W/m2 CLR
21:55 29.4 °C 13.2 °C 1013.8 hPa Calm   1.1 km/h 37 % 0.0 mm 0.0 W/m2 CLR
22:00 29.3 °C 13.5 °C 1013.8 hPa Calm     38 % 0.0 mm 0.0 W/m2 CLR
22:05 29.1 °C 12.9 °C 1013.8 hPa Calm     37 % 0.0 mm 0.0 W/m2 CLR
22:10 28.9 °C 12.8 °C 1013.8 hPa Calm     37 % 0.0 mm 0.0 W/m2 CLR
22:15 28.8 °C 12.7 °C 1013.8 hPa Calm     37 % 0.0 mm 0.0 W/m2 CLR
22:20 28.7 °C 12.6 °C 1014.1 hPa Calm     37 % 0.0 mm 0.0 W/m2 CLR
22:25 28.6 °C 12.5 °C 1014.1 hPa Calm     37 % 0.0 mm 0.0 W/m2 CLR
22:30 28.4 °C 12.7 °C 1014.1 hPa Calm     38 % 0.0 mm 0.0 W/m2 CLR
22:31 28.4 °C 12.7 °C 1014.1 hPa Calm     38 % 0.0 mm 0.0 W/m2 CLR
22:36 28.1 °C 12.4 °C 1014.1 hPa Calm     38 % 0.0 mm 0.0 W/m2 CLR
22:41 27.9 °C 12.7 °C 1014.1 hPa Calm     39 % 0.0 mm 0.0 W/m2 CLR
22:46 27.8 °C 12.9 °C 1014.1 hPa Calm     40 % 0.0 mm 0.0 W/m2 CLR
22:51 27.6 °C 12.4 °C 1014.4 hPa Calm     39 % 0.0 mm 0.0 W/m2 CLR
22:57 27.5 °C 12.7 °C 1014.4 hPa Calm     40 % 0.0 mm 0.0 W/m2 CLR
23:02 27.4 °C 12.6 °C 1014.4 hPa Calm     40 % 0.0 mm 0.0 W/m2 CLR
23:07 27.3 °C 12.5 °C 1014.4 hPa Calm     40 % 0.0 mm 0.0 W/m2 CLR
23:12 27.2 °C 12.8 °C 1014.4 hPa Calm     41 % 0.0 mm 0.0 W/m2 CLR
23:17 27.1 °C 12.7 °C 1014.4 hPa Calm     41 % 0.0 mm 0.0 W/m2 CLR
23:22 26.9 °C 12.9 °C 1014.4 hPa Calm     42 % 0.0 mm 0.0 W/m2 CLR
23:27 26.7 °C 13.1 °C 1014.8 hPa Calm     43 % 0.0 mm 0.0 W/m2 CLR
23:32 26.4 °C 12.8 °C 1014.8 hPa Calm     43 % 0.0 mm 0.0 W/m2 CLR
23:37 25.9 °C 13.7 °C 1014.8 hPa Calm     47 % 0.0 mm 0.0 W/m2 CLR
23:42 25.3 °C 13.5 °C 1014.8 hPa Calm     48 % 0.0 mm 0.0 W/m2 CLR
23:47 24.9 °C 13.2 °C 1014.8 hPa Calm     48 % 0.0 mm 0.0 W/m2 CLR
23:52 25.0 °C 12.9 °C 1014.8 hPa Calm     47 % 0.0 mm 0.0 W/m2 CLR
23:57 25.2 °C 13.1 °C 1014.8 hPa ENE 3.7 km/h   47 % 0.0 mm 0.0 W/m2 CLR
23:58 25.2 °C 12.8 °C 1014.8 hPa Calm     46 % 0.0 mm 0.0 W/m2 CLR
Lo Temps de Massalio
Compliments of Weather Underground - 1.25 mb